[[{"header":{"parameterUnit":"m.s-1","parameterCategory":2,"la1":30.2991,"la2":30.254,"lo1":-89.0895,"lo2":-89.0444,"dy":0.0017,"dx":0.0017,"nx":28,"ny":28,"refTime":"2025-06-23T03:00:00:Z","depth":"0","parameterNumber":2,"parameterNumberName":"U-component_of_CURRENTS"},"data":[0,0,0,0,0,0,0,0,0,0,0,0,0,0,0,0,0,0,0,0,0,0,0,0,0,0,0,0,0,0,0,0,0,0,0,0,0,0,0,0,0,0,0,0,0,0,0,0,0,0,0,0,0,0,0,0,0,0,0.4239,0.424,0,0.4364,0.4366,0.4368,0.4389,0.4388,0.4386,0.4385,0.4588,0.4594,0.4601,0,0,0,0,0,0,0,0,0,0,0,0,0,0.4098,0.4101,0.4239,0.424,0.4242,0.4364,0.4366,0.4368,0.4389,0.4388,0.4386,0.4384,0.4586,0.4594,0.4602,0,0,0,0,0,0,0,0,0,0,0,0,0,0.4189,0.4101,0.4239,0.4264,0.4267,0.4364,0.4366,0.4369,0.439,0.4388,0.4385,0.4383,0.4583,0.4593,0.4603,0.4708,0,0,0.4634,0.4638,0,0,0,0,0,0,0,0,0.4183,0.4194,0.4259,0.4262,0.4266,0.4355,0.4391,0.4485,0.439,0.4347,0.4385,0.4382,0.4517,0.4532,0.4565,0.4717,0.4726,0.4635,0.4641,0.4645,0.4648,0,0,0,0,0,0,0,0.4177,0.4189,0.4293,0.4261,0.4265,0.4296,0.4306,0.4409,0.4447,0.4351,0.4352,0.436,0.4519,0.4555,0.457,0.4729,0.4634,0.4643,0.4649,0.4653,0.5135,0.5141,0,0,0,0,0,0,0.4153,0.4183,0.4289,0.4296,0.4214,0.43,0.4311,0.4332,0.4444,0.4457,0.4362,0.4361,0.4539,0.4558,0.4577,0.4798,0.4645,0.4654,0.466,0.5128,0.5136,0.5144,0,0,0,0,0,0,0.4149,0.4161,0.4284,0.4238,0.4255,0.4303,0.4327,0.4336,0.4366,0.4451,0.4466,0.4382,0.4538,0.4563,0.471,0.4802,0.4659,0.4668,0.512,0.5131,0.514,0.5182,0,0,0,0,0,0,0.4145,0.416,0.4175,0.4237,0.4257,0.4348,0.4329,0.4339,0.4373,0.4373,0.4474,0.449,0.4538,0.4695,0.472,0.4813,0.4676,0.5112,0.5125,0.5137,0.5172,0.5192,0.5209,0,0,0,0,0,0.414,0.417,0.4175,0.4188,0.4274,0.4349,0.4364,0.4392,0.4376,0.4408,0.4498,0.4487,0.4794,0.4708,0.4736,0.4834,0.5106,0.5121,0.5136,0.5163,0.5188,0.5209,0,0,0,0,0,0,0.411,0.4177,0.4183,0.4229,0.4285,0.4351,0.4382,0.4397,0.449,0.4492,0.4559,0.4587,0.478,0.4807,0.471,0.5022,0.4955,0.4977,0.4967,0.4991,0.5009,0.4982,0.4684,0,0,0,0,0,0.4112,0.4158,0.4215,0.4255,0.4279,0.433,0.4363,0.4385,0.4466,0.45,0.458,0.47,0.4871,0.4918,0.5069,0.5198,0.5196,0.5293,0.5311,0.5326,0.5333,0.5383,0.5403,0.5194,0.5193,0.5193,0,0,0.4106,0.4153,0.4174,0.4253,0.4294,0.4397,0.4346,0.4401,0.4506,0.4516,0.4683,0.4785,0.4937,0.5123,0.5206,0.5137,0.5397,0.5345,0.5355,0.5355,0.5401,0.542,0.5436,0.5204,0.5202,0.52,0,0,0.416,0.4163,0.424,0.4304,0.4376,0.4422,0.4438,0.4517,0.4563,0.4721,0.4802,0.494,0.5144,0.5273,0.5368,0.5579,0.5528,0.563,0.5653,0.5702,0.5716,0.5729,0.5767,0.5782,0.5592,0.5593,0.5593,0,0.416,0.4261,0.4271,0.4384,0.4437,0.4445,0.4547,0.4631,0.4755,0.4805,0.4788,0.5125,0.5236,0.5481,0.5563,0.5619,0.561,0.5535,0.5714,0.5727,0.5739,0.5774,0.579,0.5596,0.5596,0.5595,0.5595,0,0.4294,0.4381,0.4428,0.458,0.464,0.4716,0.4812,0.4884,0.4921,0.4992,0.5197,0.5336,0.5507,0.5591,0.5644,0.5822,0.5779,0.5752,0.5621,0.576,0.5792,0.5808,0.5602,0.56,0.5599,0.5598,0,0,0.4292,0.4484,0.4506,0.459,0.4735,0.4792,0.4958,0.5086,0.5166,0.5286,0.5397,0.5687,0.5672,0.5784,0.5853,0.5884,0.5986,0.583,0.583,0.5806,0.6063,0.5966,0.5973,0.594,0.5944,0.5946,0.6051,0,0.4399,0.4608,0.468,0.4874,0.4976,0.5028,0.5169,0.5281,0.5356,0.5469,0.5581,0.5747,0.5777,0.583,0.5887,0.5988,0.6027,0.5959,0.5988,0.599,0.5834,0.599,0.5801,0.5872,0.6066,0.6069,0.6071,0,0.4527,0.4642,0.483,0.4992,0.5031,0.5138,0.5269,0.5399,0.5553,0.5598,0.572,0.5801,0.5973,0.592,0.6106,0.6038,0.6068,0.6096,0.6099,0.5999,0.5923,0.5773,0.5893,0.5698,0.6095,0.6093,0.6091,0,0.4526,0.4746,0.4875,0.4945,0.5138,0.5193,0.5271,0.5417,0.5488,0.5658,0.5693,0.5894,0.5962,0.6057,0.6158,0.612,0.628,0.6239,0.6187,0.618,0.6028,0.6001,0.5907,0.634,0.634,0.634,0.634,0,0.4636,0.4748,0.4869,0.4956,0.5057,0.5175,0.5272,0.538,0.5491,0.5558,0.573,0.58,0.5978,0.6093,0.6176,0.6241,0.6309,0.6231,0.6213,0.6044,0.6019,0.5846,0.5769,0.6344,0.6343,0.6342,0.6341,0,0.4683,0.4775,0.4911,0.5049,0.5075,0.5138,0.5226,0.5279,0.5403,0.5486,0.5533,0.5733,0.5894,0.6069,0.6229,0.6237,0.6155,0.6328,0.6117,0.6073,0.581,0.5745,0.5516,0.5356,0.6294,0.6293,0.6291,0,0.4752,0.4828,0.4925,0.493,0.4989,0.5062,0.5085,0.5217,0.5248,0.5428,0.5442,0.5645,0.575,0.5981,0.6085,0.6233,0.6075,0.6097,0.6014,0.5793,0.571,0.5511,0.5379,0.5848,0.5844,0.584,0.5836,0,0.4842,0.484,0.4905,0.4883,0.4893,0.4916,0.4949,0.4961,0.5092,0.5178,0.525,0.5356,0.56,0.5672,0.5881,0.5953,0.5787,0.6014,0.5845,0.5413,0.5134,0.4969,0.578,0.5801,0.5805,0.5807,0.5809,0.581,0.4828,0.4835,0.4819,0.479,0.4778,0.4695,0.4652,0.4698,0.4725,0.4786,0.4996,0.5099,0.5332,0.5603,0.5616,0.5505,0.5509,0.5388,0.5352,0.5189,0.4941,0.5668,0.5623,0.5625,0.5627,0.5629,0.5631,0,0.4763,0.473,0.4701,0.4599,0.4491,0.4541,0.4489,0.4403,0.4365,0.4554,0.4639,0.4824,0.4919,0.5068,0.5066,0.4877,0.4697,0.4754,0.4438,0.4362,0.5071,0.4956,0.4688,0.4688,0.4688,0.4689,0.4689,0.4689,0.4693,0.4617,0.4566,0.431,0.4234,0.4028,0.3964,0.3902,0.3971,0.4,0.41,0.4295,0.4521,0.4644,0.4458,0.4364,0.4012,0.3862,0.3826,0.4338,0.4393,0.4445,0.4316,0.3919,0.3918,0.296,0.2953,0.2947]},{"header":{"parameterUnit":"m.s-1","parameterCategory":2,"la1":30.2991,"la2":30.254,"lo1":-89.0895,"lo2":-89.0444,"dy":0.0017,"dx":0.0017,"nx":28,"ny":28,"refTime":"2025-06-23T03:00:00:Z","depth":"0","parameterNumber":3,"parameterNumberName":"V-component_of_CURRENTS"},"data":[0,0,0,0,0,0,0,0,0,0,0,0,0,0,0,0,0,0,0,0,0,0,0,0,0,0,0,0,0,0,0,0,0,0,0,0,0,0,0,0,0,0,0,0,0,0,0,0,0,0,0,0,0,0,0,0,0,0,0.0422,0.0422,0,0.0439,0.0439,0.044,0.038,0.0378,0.0376,0.0374,0.0441,0.0444,0.0448,0,0,0,0,0,0,0,0,0,0,0,0,0,0.0295,0.0298,0.0422,0.0422,0.0422,0.0439,0.0439,0.044,0.038,0.0378,0.0375,0.0373,0.0439,0.0444,0.0448,0,0,0,0,0,0,0,0,0,0,0,0,0,0.0336,0.0299,0.0422,0.0393,0.0391,0.0439,0.0439,0.044,0.0381,0.0378,0.0375,0.0372,0.0438,0.0443,0.0449,0.054,0,0,0.0465,0.0467,0,0,0,0,0,0,0,0,0.0334,0.0341,0.0397,0.0395,0.0392,0.0403,0.0419,0.0475,0.0381,0.0386,0.0374,0.0371,0.0434,0.0439,0.045,0.0543,0.0546,0.0465,0.0469,0.0471,0.0472,0,0,0,0,0,0,0,0.0332,0.034,0.043,0.0398,0.0395,0.0365,0.0368,0.0429,0.0428,0.0385,0.0381,0.0381,0.0433,0.0445,0.0452,0.0547,0.0465,0.047,0.0473,0.0475,0.0823,0.0829,0,0,0,0,0,0,0.0333,0.0338,0.0429,0.043,0.0354,0.037,0.0373,0.0404,0.0426,0.0426,0.0384,0.0378,0.0438,0.0445,0.0454,0.0633,0.0471,0.0476,0.0479,0.0817,0.0825,0.0831,0,0,0,0,0,0,0.0331,0.0342,0.0429,0.0381,0.0389,0.0375,0.041,0.0406,0.0419,0.0424,0.0424,0.04,0.0436,0.0446,0.0534,0.0631,0.0478,0.0483,0.081,0.082,0.0828,0.0946,0,0,0,0,0,0,0.0328,0.0342,0.0363,0.0383,0.0392,0.0479,0.0412,0.0408,0.0422,0.0416,0.0439,0.0441,0.0434,0.0526,0.0539,0.0636,0.0487,0.0803,0.0815,0.0825,0.0934,0.0958,0.0978,0,0,0,0,0,0.0323,0.0386,0.0365,0.0375,0.0424,0.0481,0.0486,0.0463,0.0426,0.0459,0.0476,0.0441,0.0608,0.0535,0.0549,0.0649,0.0797,0.0811,0.0824,0.0925,0.0953,0.0977,0,0,0,0,0,0,0.0342,0.0386,0.0363,0.0433,0.0455,0.0471,0.0498,0.0481,0.0519,0.0515,0.0503,0.0511,0.0638,0.0638,0.0557,0.0792,0.0706,0.0722,0.0777,0.0804,0.0826,0.0799,0.0492,0,0,0,0,0,0.0356,0.0413,0.0434,0.0488,0.0504,0.0501,0.0517,0.0512,0.0543,0.0553,0.0569,0.0619,0.0712,0.0744,0.0816,0.0928,0.0859,0.1014,0.1035,0.1053,0.1049,0.1003,0.1016,0.0876,0.0876,0.0875,0,0,0.0371,0.0406,0.0432,0.0494,0.0506,0.0579,0.0506,0.0556,0.0629,0.0563,0.0669,0.0699,0.0764,0.0897,0.0955,0.0899,0.1068,0.107,0.1084,0.107,0.1018,0.103,0.1041,0.0885,0.0883,0.0882,0,0,0.0466,0.047,0.0556,0.0596,0.0637,0.0641,0.0661,0.0693,0.0716,0.0816,0.0813,0.0887,0.1,0.1062,0.1113,0.1305,0.1193,0.1348,0.1419,0.1376,0.1384,0.139,0.1334,0.1334,0.1345,0.1345,0.1345,0,0.0482,0.0597,0.0587,0.0688,0.0734,0.068,0.0786,0.082,0.0876,0.0935,0.0871,0.1058,0.1088,0.127,0.1322,0.1352,0.1281,0.1301,0.1393,0.1398,0.1402,0.1342,0.1341,0.1352,0.1351,0.1351,0.135,0,0.0647,0.0735,0.0793,0.0899,0.0946,0.1027,0.1062,0.1115,0.1112,0.1148,0.1295,0.1308,0.1416,0.1451,0.1434,0.1537,0.1463,0.1424,0.1298,0.1421,0.1354,0.1349,0.1363,0.136,0.1358,0.1356,0,0,0.0709,0.0876,0.0899,0.0983,0.1067,0.1129,0.1253,0.1365,0.1468,0.148,0.1621,0.1715,0.1678,0.1732,0.1722,0.1653,0.162,0.1534,0.1528,0.1428,0.1487,0.1431,0.142,0.1556,0.1556,0.1556,0.1429,0,0.0842,0.1057,0.1111,0.1302,0.1408,0.1422,0.1551,0.1641,0.1688,0.1807,0.1807,0.1937,0.1808,0.1857,0.1778,0.1693,0.1612,0.1656,0.1427,0.1421,0.1313,0.1415,0.1362,0.1243,0.1424,0.1423,0.1423,0,0.0998,0.1122,0.133,0.1522,0.157,0.167,0.1838,0.1955,0.2092,0.2136,0.2198,0.2198,0.2209,0.204,0.1865,0.1883,0.1693,0.1554,0.1545,0.144,0.1357,0.1154,0.1227,0.0939,0.1415,0.1415,0.1416,0,0.1051,0.1282,0.1445,0.1511,0.1707,0.181,0.1906,0.2057,0.219,0.2341,0.2429,0.2425,0.2439,0.2204,0.1943,0.1892,0.1679,0.1598,0.1362,0.1355,0.1243,0.1227,0.0965,0.1424,0.1425,0.1425,0.1425,0,0.1185,0.1324,0.1482,0.1581,0.1785,0.1892,0.2116,0.2218,0.2401,0.2588,0.2591,0.2704,0.2455,0.2329,0.2029,0.1703,0.1755,0.1384,0.1326,0.1291,0.1281,0.097,0.0835,0.142,0.1421,0.1422,0.1423,0,0.1244,0.1347,0.1542,0.1749,0.1821,0.1962,0.2219,0.239,0.2534,0.2768,0.2828,0.2901,0.2759,0.2483,0.2143,0.1841,0.1357,0.1386,0.1361,0.1302,0.0806,0.0684,0.0399,0.0283,0.1112,0.111,0.1109,0,0.1308,0.1413,0.1628,0.1742,0.1844,0.2058,0.2226,0.2427,0.2615,0.2888,0.3015,0.3006,0.304,0.2562,0.2051,0.1566,0.1297,0.1163,0.1064,0.078,0.0599,0.0533,0.0453,0.0962,0.096,0.0957,0.0956,0,0.1421,0.1469,0.1609,0.1824,0.2001,0.2227,0.2476,0.2639,0.29,0.309,0.3317,0.3376,0.3007,0.255,0.1924,0.1565,0.0975,0.1099,0.0808,0.0469,0.0376,0.0238,0.1037,0.0935,0.0937,0.0939,0.094,0.0941,0.1469,0.1562,0.1719,0.1928,0.2127,0.2384,0.2585,0.2844,0.313,0.3452,0.3499,0.3626,0.2957,0.2134,0.1657,0.0728,0.0796,0.0415,0.0291,0.0253,0.0132,0.0891,0.0727,0.0728,0.0728,0.0729,0.0729,0,0.1538,0.1643,0.1835,0.2074,0.2291,0.2397,0.2754,0.2968,0.3286,0.3559,0.3747,0.3463,0.2655,0.1851,0.0597,0.0003,-0.0173,-0.0299,-0.0435,-0.0477,0.0178,0.0161,-0.0136,-0.0136,-0.0135,-0.0135,-0.0135,-0.0134,0.157,0.1736,0.1836,0.2167,0.2347,0.2662,0.2868,0.3162,0.3423,0.3694,0.3764,0.3809,0.3041,0.0952,-0.0416,-0.0688,-0.1064,-0.115,-0.1289,-0.0896,-0.0839,-0.0785,-0.0836,-0.1336,-0.1338,-0.189,-0.1896,-0.1901]}],[{"header":{"parameterUnit":"m.s-1","parameterCategory":2,"la1":30.2991,"la2":30.254,"lo1":-89.0895,"lo2":-89.0444,"dy":0.0017,"dx":0.0017,"nx":28,"ny":28,"refTime":"2025-06-23T03:00:00:Z","depth":"2","parameterNumber":2,"parameterNumberName":"U-component_of_CURRENTS"},"data":[0,0,0,0,0,0,0,0,0,0,0,0,0,0,0,0,0,0,0,0,0,0,0,0,0,0,0,0,0,0,0,0,0,0,0,0,0,0,0,0,0,0,0,0,0,0,0,0,0,0,0,0,0,0,0,0,0,0,0.3273,0.3274,0,0.3322,0.3322,0.3323,0.3453,0.3456,0.3459,0.3462,0.3656,0.3659,0.3661,0,0,0,0,0,0,0,0,0,0,0,0,0,0.3151,0.3153,0.3273,0.3274,0.3275,0.3322,0.3322,0.3323,0.3453,0.3457,0.346,0.3464,0.3656,0.3658,0.3661,0,0,0,0,0,0,0,0,0,0,0,0,0,0.32,0.3154,0.3273,0.3347,0.3354,0.3322,0.3322,0.3323,0.3452,0.3457,0.3461,0.3465,0.3655,0.3658,0.3661,0.3592,0,0,0.3672,0.3674,0,0,0,0,0,0,0,0,0.3197,0.3204,0.3335,0.3342,0.335,0.3388,0.335,0.3421,0.3451,0.3412,0.3462,0.3468,0.3578,0.3588,0.3582,0.3601,0.361,0.3673,0.3675,0.3676,0.3677,0,0,0,0,0,0,0,0.3194,0.3202,0.329,0.3336,0.3345,0.3329,0.3343,0.3363,0.347,0.3416,0.3426,0.3434,0.3584,0.3578,0.3588,0.3613,0.3672,0.3676,0.3678,0.3679,0.3989,0.3995,0,0,0,0,0,0,0.3195,0.3199,0.3289,0.3292,0.3286,0.3329,0.3343,0.3369,0.3467,0.3486,0.343,0.344,0.357,0.3584,0.3596,0.3783,0.3676,0.3679,0.3681,0.3983,0.399,0.3997,0,0,0,0,0,0,0.3193,0.3203,0.3287,0.3247,0.3257,0.3328,0.3355,0.3368,0.3426,0.3477,0.3499,0.3482,0.3574,0.3591,0.3736,0.3782,0.3681,0.3684,0.3976,0.3985,0.3994,0.399,0,0,0,0,0,0,0.3189,0.3202,0.3227,0.3248,0.326,0.335,0.3351,0.3366,0.3421,0.3436,0.3527,0.3546,0.3579,0.3732,0.374,0.3785,0.3687,0.3968,0.398,0.3991,0.3982,0.3998,0.4011,0,0,0,0,0,0.3185,0.3221,0.3228,0.3239,0.3291,0.3354,0.3361,0.342,0.3419,0.3479,0.3566,0.3546,0.3812,0.3738,0.3747,0.3794,0.3962,0.3977,0.399,0.3976,0.3995,0.4011,0,0,0,0,0,0,0.32,0.3237,0.3247,0.3298,0.3354,0.338,0.3422,0.3435,0.3532,0.3548,0.3599,0.3627,0.3736,0.3806,0.3724,0.3937,0.3892,0.3908,0.3879,0.3897,0.3911,0.3875,0.369,0,0,0,0,0,0.3201,0.3233,0.3279,0.3323,0.3353,0.338,0.3408,0.344,0.3513,0.3559,0.3611,0.3705,0.3782,0.388,0.3918,0.405,0.4041,0.4107,0.4121,0.4132,0.4123,0.4164,0.4177,0.4042,0.4042,0.4042,0,0,0.3208,0.3238,0.3254,0.3326,0.336,0.3407,0.3414,0.3471,0.3512,0.356,0.3649,0.37,0.3813,0.3938,0.4005,0.4028,0.4175,0.4149,0.4156,0.4141,0.4179,0.419,0.42,0.4052,0.405,0.4048,0,0,0.3207,0.3281,0.3284,0.3353,0.3413,0.3445,0.3474,0.3518,0.3562,0.3641,0.3685,0.3792,0.3914,0.4013,0.4079,0.4212,0.4185,0.4264,0.4369,0.4409,0.4417,0.4424,0.4425,0.4432,0.4347,0.4347,0.4347,0,0.3201,0.3243,0.3304,0.3346,0.3398,0.3471,0.3501,0.3559,0.3641,0.3687,0.3692,0.387,0.3931,0.4121,0.4191,0.4224,0.4252,0.427,0.4415,0.4422,0.4429,0.4428,0.4436,0.4348,0.4348,0.4348,0.4348,0,0.3227,0.3261,0.3294,0.3366,0.3429,0.3497,0.3575,0.3609,0.3644,0.3726,0.3858,0.3953,0.4099,0.4143,0.4207,0.4348,0.4346,0.4347,0.4333,0.4439,0.4436,0.4443,0.4351,0.435,0.435,0.4349,0,0,0.3201,0.3277,0.3297,0.3303,0.3454,0.3489,0.3558,0.3662,0.3747,0.3831,0.3936,0.4085,0.4178,0.4264,0.4366,0.4443,0.4492,0.4461,0.4462,0.4395,0.4578,0.4454,0.4449,0.4533,0.4535,0.4536,0.455,0,0.3198,0.3242,0.3295,0.3348,0.3383,0.3462,0.356,0.3668,0.3781,0.3917,0.4041,0.4201,0.4237,0.4331,0.4414,0.4466,0.4518,0.4487,0.4545,0.4545,0.4366,0.4456,0.4148,0.4125,0.4557,0.4558,0.4559,0,0.3217,0.324,0.3275,0.3327,0.3358,0.342,0.3559,0.3654,0.3889,0.3989,0.4176,0.4295,0.4473,0.4439,0.4582,0.458,0.458,0.4587,0.4588,0.447,0.4435,0.4102,0.4122,0.4571,0.457,0.4569,0.4568,0,0.3182,0.322,0.3233,0.3279,0.3378,0.3383,0.3471,0.3696,0.3805,0.4071,0.4193,0.4418,0.4522,0.4574,0.4617,0.4623,0.4692,0.4692,0.4563,0.4553,0.4296,0.426,0.4717,0.4717,0.4717,0.4717,0.4717,0,0.3184,0.3184,0.3214,0.3244,0.328,0.3383,0.3502,0.3624,0.3867,0.4034,0.4284,0.441,0.4558,0.4627,0.4639,0.4631,0.4715,0.4566,0.4555,0.4293,0.4258,0.4654,0.4646,0.4717,0.4717,0.4717,0.4717,0,0.3134,0.3168,0.3164,0.3238,0.3257,0.3304,0.346,0.3586,0.3848,0.4032,0.4111,0.4411,0.4523,0.4616,0.4674,0.4642,0.4635,0.4586,0.4251,0.4199,0.4461,0.4455,0.4467,0.4463,0.4459,0.4456,0.4454,0,0.3093,0.3097,0.3148,0.315,0.3172,0.3246,0.334,0.3559,0.3694,0.3995,0.4079,0.4271,0.4368,0.4473,0.4449,0.4437,0.4539,0.4114,0.405,0.4451,0.444,0.4439,0.4437,0.3713,0.3705,0.3698,0.3693,0,0.2994,0.3037,0.3049,0.3108,0.3146,0.3181,0.3309,0.3371,0.3619,0.3769,0.3936,0.4014,0.4162,0.4053,0.4074,0.4019,0.4106,0.3974,0.449,0.3827,0.3742,0.3731,0.3754,0.3632,0.3638,0.3643,0.3646,0.3648,0.2923,0.2913,0.2974,0.3004,0.3068,0.3104,0.3088,0.3199,0.3303,0.343,0.3621,0.3662,0.3732,0.3645,0.3537,0.3492,0.3763,0.361,0.363,0.3658,0.3571,0.3485,0.3309,0.3313,0.3316,0.3319,0.3322,0,0.2787,0.2818,0.2856,0.2893,0.2927,0.3024,0.3054,0.2994,0.2972,0.3124,0.3192,0.2988,0.2964,0.306,0.2908,0.2905,0.2872,0.2789,0.2737,0.28,0.2856,0.2726,0.2241,0.2237,0.2233,0.223,0,0,0.2709,0.266,0.2679,0.2685,0.278,0.2725,0.2688,0.2617,0.2633,0.255,0.2564,0.2819,0.297,0.2567,0.2526,0.2364,0.2554,0.2269,0.3144,0.3148,0.3198,0.3347,0.3221,0,0,0,0,0]},{"header":{"parameterUnit":"m.s-1","parameterCategory":2,"la1":30.2991,"la2":30.254,"lo1":-89.0895,"lo2":-89.0444,"dy":0.0017,"dx":0.0017,"nx":28,"ny":28,"refTime":"2025-06-23T03:00:00:Z","depth":"2","parameterNumber":3,"parameterNumberName":"V-component_of_CURRENTS"},"data":[0,0,0,0,0,0,0,0,0,0,0,0,0,0,0,0,0,0,0,0,0,0,0,0,0,0,0,0,0,0,0,0,0,0,0,0,0,0,0,0,0,0,0,0,0,0,0,0,0,0,0,0,0,0,0,0,0,0,0.0177,0.0176,0,0.0078,0.0077,0.0075,0.0006,0.0006,0.0006,0.0006,-0.0269,-0.0276,-0.0284,0,0,0,0,0,0,0,0,0,0,0,0,0,0.015,0.0151,0.0177,0.0176,0.0175,0.0078,0.0076,0.0075,0.0006,0.0006,0.0006,0.0006,-0.0267,-0.0276,-0.0284,0,0,0,0,0,0,0,0,0,0,0,0,0,0.0113,0.0152,0.0177,0.0133,0.0129,0.0079,0.0076,0.0074,0.0007,0.0006,0.0006,0.0006,-0.0264,-0.0275,-0.0286,-0.035,0,0,-0.0319,-0.0323,0,0,0,0,0,0,0,0,0.0116,0.0114,0.014,0.0136,0.0131,0.0059,-0.0034,-0.0075,0.0007,0.0048,0.0006,0.0006,-0.0173,-0.0191,-0.0214,-0.0363,-0.0375,-0.032,-0.0326,-0.0331,-0.0334,0,0,0,0,0,0,0,0.0118,0.0117,0.0133,0.014,0.0134,0.0065,0.006,-0.0042,-0.0068,0.0044,0.004,0.0037,-0.0178,-0.0203,-0.0221,-0.0379,-0.0319,-0.0329,-0.0336,-0.034,-0.055,-0.0549,0,0,0,0,0,0,0.0149,0.012,0.0136,0.0131,0.0128,0.0066,0.0061,0.0078,-0.0063,-0.0081,0.0037,0.0034,-0.0184,-0.0208,-0.0231,-0.026,-0.0331,-0.0341,-0.0347,-0.0551,-0.055,-0.0549,0,0,0,0,0,0,0.0149,0.0152,0.014,0.0125,0.0119,0.0069,0.0087,0.0076,0.0054,-0.0065,-0.0089,0.0027,-0.0185,-0.0216,-0.0274,-0.0273,-0.0346,-0.0356,-0.0552,-0.055,-0.0549,-0.0354,0,0,0,0,0,0,0.0149,0.0153,0.0165,0.0128,0.0122,0.0128,0.0087,0.0075,0.0054,0.0049,-0.0082,-0.0108,-0.0188,-0.0256,-0.0284,-0.029,-0.0364,-0.0553,-0.0551,-0.055,-0.0361,-0.0346,-0.0332,0,0,0,0,0,0.0149,0.0171,0.0167,0.0168,0.0145,0.0129,0.0119,0.0077,0.0054,0.0054,-0.0006,-0.0103,-0.0266,-0.0263,-0.0297,-0.0305,-0.0554,-0.0552,-0.055,-0.0368,-0.0349,-0.0333,0,0,0,0,0,0,0.016,0.0166,0.016,0.0182,0.0167,0.012,0.0113,0.0084,0.0035,0.0029,-0.0084,-0.0113,-0.0178,-0.026,-0.0253,-0.036,-0.0432,-0.0436,-0.0282,-0.0265,-0.0251,-0.0213,-0.0373,0,0,0,0,0,0.0173,0.0198,0.0183,0.0202,0.0199,0.0157,0.0141,0.0121,0.0078,0.0056,-0.0027,-0.0117,-0.0198,-0.0238,-0.0334,-0.0381,-0.0446,-0.0412,-0.0397,-0.0384,-0.0375,-0.0416,-0.0404,-0.0542,-0.0542,-0.0542,0,0,0.0182,0.019,0.0201,0.0206,0.0188,0.0191,0.0146,0.0141,0.0129,0.0029,-0.0014,-0.0084,-0.0203,-0.0249,-0.0287,-0.0312,-0.0382,-0.0382,-0.0369,-0.0368,-0.0413,-0.0399,-0.0387,-0.054,-0.054,-0.0541,0,0,0.0211,0.0223,0.0248,0.0248,0.0242,0.0219,0.0224,0.019,0.0161,0.0127,0.0052,0.0024,-0.0125,-0.0166,-0.0219,-0.0183,-0.0315,-0.0245,-0.013,-0.0168,-0.0157,-0.0147,-0.0216,-0.0214,-0.0222,-0.0222,-0.0221,0,0.0218,0.0258,0.0249,0.0272,0.0272,0.0239,0.0255,0.0223,0.0174,0.0161,0.0133,0.0011,-0.0078,-0.011,-0.0086,-0.015,-0.0209,-0.018,-0.0145,-0.0138,-0.0131,-0.0204,-0.0205,-0.0212,-0.0213,-0.0214,-0.0215,0,0.027,0.0295,0.0311,0.0335,0.0328,0.0345,0.0312,0.0289,0.0254,0.0239,0.0205,0.0137,0.008,0.0042,-0.0015,-0.0014,-0.0085,-0.0129,-0.0177,-0.0105,-0.0188,-0.0191,-0.0198,-0.0202,-0.0204,-0.0207,0,0,0.0306,0.0341,0.0347,0.0372,0.0368,0.0378,0.0348,0.0334,0.035,0.0309,0.0327,0.0247,0.0253,0.0197,0.014,0.0124,0.0125,0.0034,0.0027,-0.0014,0.0014,-0.0028,-0.0039,0.0088,0.0088,0.0089,-0.0063,0,0.0348,0.0414,0.0404,0.0452,0.0483,0.0438,0.0421,0.0404,0.0393,0.0405,0.0362,0.0356,0.0297,0.0301,0.0283,0.0161,0.0123,0.0168,-0.0071,-0.0079,-0.0106,-0.004,-0.0007,-0.0139,-0.0068,-0.0069,-0.0069,0,0.0401,0.0443,0.0498,0.0527,0.0533,0.0544,0.0545,0.0531,0.0522,0.0521,0.0543,0.0507,0.0497,0.043,0.0301,0.033,0.0186,0.0089,0.008,-0.0029,-0.0126,-0.0204,-0.015,-0.0077,-0.0077,-0.0076,-0.0075,0,0.0456,0.0507,0.0558,0.0574,0.0592,0.0587,0.0582,0.0576,0.0589,0.062,0.0668,0.0636,0.0623,0.049,0.0312,0.0298,0.014,0.0087,-0.0096,-0.0103,-0.0158,-0.0169,-0.0034,-0.0033,-0.0033,-0.0033,-0.0032,0,0.0514,0.0556,0.0597,0.0635,0.0686,0.0664,0.0722,0.0706,0.0728,0.0799,0.0763,0.0809,0.0635,0.0529,0.0351,0.0137,0.0166,-0.0067,-0.013,-0.0092,-0.0095,-0.0112,-0.0119,-0.0038,-0.0037,-0.0036,-0.0035,0,0.0554,0.0585,0.0656,0.0701,0.0717,0.0752,0.0796,0.0854,0.0863,0.095,0.0964,0.0917,0.0794,0.0597,0.0351,0.0181,-0.0023,-0.0133,-0.0087,-0.014,-0.0262,-0.0258,-0.0336,-0.0338,-0.034,-0.0342,-0.0343,0,0.0579,0.0623,0.0714,0.0768,0.0789,0.0849,0.0896,0.0913,0.1,0.1029,0.1093,0.0979,0.0951,0.0597,0.0273,-0.0046,-0.0084,-0.0261,-0.0272,-0.0232,-0.0286,-0.0278,-0.0271,-0.0285,-0.0286,-0.0286,-0.0287,0,0.0619,0.0652,0.0712,0.0833,0.091,0.1005,0.1089,0.1172,0.121,0.1287,0.1346,0.1301,0.0958,0.0658,0.0195,-0.0027,-0.0188,-0.0288,-0.0246,-0.0202,-0.0192,-0.0243,-0.0236,-0.0293,-0.0292,-0.0292,-0.0292,-0.0291,0.0641,0.0692,0.0787,0.0895,0.1002,0.1152,0.1251,0.1372,0.1496,0.1601,0.1527,0.1486,0.1082,0.0527,0.0138,-0.0267,-0.0266,-0.0402,-0.0396,-0.039,-0.0345,-0.0338,-0.046,-0.0461,-0.0461,-0.0461,-0.0461,0,0.068,0.0743,0.0848,0.0996,0.1134,0.1179,0.1377,0.1491,0.1675,0.1746,0.1779,0.1415,0.1044,0.0613,0.0008,-0.0376,-0.0391,-0.0485,-0.0409,-0.0401,-0.0395,-0.0347,-0.0465,-0.0466,-0.0467,-0.0467,0,0,0.0708,0.081,0.0871,0.1088,0.1196,0.1389,0.1516,0.1679,0.1796,0.1873,0.1847,0.1731,0.1194,0.0765,0.024,-0.0095,-0.0155,-0.0169,-0.013,0.0028,0.004,-0.0321,-0.0236,0,0,0,0,0]}],[{"header":{"parameterUnit":"m.s-1","parameterCategory":2,"la1":30.2991,"la2":30.254,"lo1":-89.0895,"lo2":-89.0444,"dy":0.0017,"dx":0.0017,"nx":28,"ny":28,"refTime":"2025-06-23T03:00:00:Z","depth":"4","parameterNumber":2,"parameterNumberName":"U-component_of_CURRENTS"},"data":[0,0,0,0,0,0,0,0,0,0,0,0,0,0,0,0,0,0,0,0,0,0,0,0,0,0,0,0,0,0,0,0,0,0,0,0,0,0,0,0,0,0,0,0,0,0,0,0,0,0,0,0,0,0,0,0,0,0,0.173,0.173,0,0.1776,0.1777,0.1778,0.1828,0.1828,0.1828,0.1828,0.1694,0.169,0.1686,0,0,0,0,0,0,0,0,0,0,0,0,0,0.1707,0.1708,0.173,0.173,0.173,0.1776,0.1777,0.1778,0.1827,0.1828,0.1828,0.1828,0.1695,0.169,0.1686,0,0,0,0,0,0,0,0,0,0,0,0,0,0.1736,0.1708,0.173,0.1757,0.1759,0.1776,0.1777,0.1779,0.1827,0.1828,0.1828,0.1828,0.1696,0.1691,0.1685,0.1643,0,0,0.1668,0.1665,0,0,0,0,0,0,0,0,0.1735,0.1738,0.1753,0.1755,0.1757,0.1792,0.172,0.1723,0.1827,0.1807,0.1828,0.1829,0.1706,0.17,0.1718,0.1637,0.1631,0.1667,0.1664,0.1662,0.166,0,0,0,0,0,0,0,0.1733,0.1736,0.1754,0.1752,0.1755,0.1773,0.1778,0.1722,0.1755,0.1809,0.1811,0.1808,0.1707,0.1723,0.1714,0.1629,0.1668,0.1663,0.1659,0.1657,0.1572,0.1573,0,0,0,0,0,0,0.1715,0.1734,0.1752,0.1754,0.1741,0.1773,0.1779,0.1785,0.1759,0.1756,0.1808,0.181,0.1733,0.1721,0.1709,0.1752,0.1662,0.1656,0.1653,0.1571,0.1572,0.1573,0,0,0,0,0,0,0.1715,0.1717,0.175,0.1741,0.1746,0.1772,0.1779,0.1785,0.1841,0.1759,0.1754,0.186,0.1733,0.1717,0.1701,0.1742,0.1654,0.1648,0.1569,0.1571,0.1573,0.1774,0,0,0,0,0,0,0.1714,0.1716,0.1739,0.174,0.1745,0.1778,0.1778,0.1786,0.1833,0.1838,0.1801,0.1788,0.1732,0.171,0.1695,0.1733,0.1644,0.1568,0.157,0.1572,0.1766,0.1782,0.1797,0,0,0,0,0,0.1713,0.1732,0.174,0.1743,0.1768,0.1778,0.1785,0.1807,0.1836,0.1861,0.1849,0.1791,0.1712,0.1707,0.1689,0.1726,0.1567,0.1569,0.1572,0.1759,0.1779,0.1796,0,0,0,0,0,0,0.1739,0.1738,0.1747,0.1768,0.1781,0.1785,0.1821,0.1836,0.1854,0.187,0.1809,0.1794,0.1805,0.1725,0.1721,0.1704,0.1628,0.1627,0.1776,0.1794,0.1809,0.1822,0.1639,0,0,0,0,0,0.1751,0.1769,0.1767,0.179,0.1805,0.1826,0.1846,0.1857,0.1859,0.1874,0.1856,0.1821,0.1796,0.1766,0.1733,0.1709,0.1695,0.1717,0.1733,0.1746,0.1743,0.1826,0.1851,0.1582,0.1582,0.1582,0,0,0.1767,0.177,0.1782,0.1797,0.1822,0.1835,0.1843,0.1881,0.1897,0.1847,0.1892,0.1888,0.1808,0.1811,0.1803,0.1749,0.181,0.175,0.1763,0.1751,0.1832,0.1858,0.1882,0.1584,0.1583,0.1583,0,0,0.1783,0.1819,0.1831,0.1844,0.187,0.1878,0.1898,0.193,0.1961,0.199,0.1972,0.2013,0.1948,0.1932,0.1901,0.197,0.1911,0.1936,0.2002,0.2085,0.2109,0.213,0.2138,0.2158,0.1919,0.192,0.192,0,0.1804,0.1811,0.1839,0.1849,0.1862,0.1902,0.1914,0.1945,0.1971,0.2001,0.2021,0.2054,0.2015,0.202,0.2049,0.2013,0.2014,0.195,0.2112,0.2133,0.2151,0.2153,0.2173,0.193,0.1929,0.1928,0.1927,0,0.1806,0.1829,0.1848,0.1868,0.1892,0.1916,0.1942,0.1993,0.2054,0.2088,0.2171,0.2179,0.2197,0.2195,0.2139,0.2226,0.217,0.2155,0.2083,0.2192,0.2184,0.2202,0.1944,0.1941,0.1938,0.1935,0,0,0.1797,0.1837,0.1845,0.1858,0.1904,0.1917,0.1968,0.2015,0.2076,0.216,0.2251,0.2281,0.2348,0.2317,0.2297,0.2349,0.2496,0.2299,0.2299,0.2334,0.263,0.2448,0.2448,0.2521,0.2526,0.2529,0.2572,0,0.179,0.1801,0.1828,0.1857,0.1871,0.1926,0.1968,0.2027,0.2113,0.2217,0.2295,0.2381,0.2369,0.2421,0.2488,0.2498,0.255,0.2481,0.2491,0.249,0.2342,0.2466,0.2542,0.2584,0.2588,0.2591,0.2593,0,0.1767,0.178,0.1802,0.1852,0.187,0.1903,0.2001,0.2046,0.2182,0.2263,0.2396,0.2472,0.258,0.2576,0.2689,0.2646,0.2653,0.2659,0.2661,0.2429,0.2341,0.2448,0.2623,0.262,0.2618,0.2616,0.2614,0,0.1717,0.1758,0.1778,0.1793,0.1861,0.1903,0.1956,0.2076,0.2144,0.2323,0.243,0.2568,0.2677,0.2743,0.2779,0.2755,0.2882,0.2855,0.2689,0.2673,0.2735,0.2712,0.2948,0.2948,0.2948,0.2948,0.2948,0,0.1664,0.1684,0.1768,0.1774,0.1823,0.1893,0.1982,0.2059,0.2213,0.2309,0.2475,0.2581,0.2737,0.2826,0.2827,0.2805,0.2939,0.2717,0.2694,0.281,0.2796,0.2746,0.2722,0.2949,0.2949,0.2949,0.2948,0,0.1581,0.164,0.1666,0.1756,0.1798,0.1836,0.1973,0.2038,0.2205,0.2346,0.2421,0.2633,0.275,0.2839,0.2936,0.2854,0.2851,0.2799,0.289,0.2867,0.2566,0.2551,0.2633,0.2627,0.2623,0.2619,0.2615,0,0.1527,0.1538,0.164,0.1668,0.1713,0.1797,0.1856,0.2015,0.2091,0.2346,0.2401,0.2603,0.2715,0.2708,0.2805,0.2801,0.2762,0.2723,0.2673,0.2575,0.2545,0.2538,0.253,0.2608,0.2607,0.2605,0.2604,0,0.1412,0.1475,0.1496,0.1566,0.1633,0.1695,0.18,0.1849,0.2042,0.2216,0.2339,0.2422,0.254,0.2611,0.2623,0.2612,0.2738,0.2674,0.2683,0.2635,0.2546,0.2519,0.2517,0.2588,0.259,0.2592,0.2593,0,0.1334,0.1326,0.1383,0.1434,0.1519,0.1572,0.1642,0.1737,0.184,0.2119,0.2148,0.235,0.2518,0.2512,0.2524,0.2507,0.2471,0.2373,0.2397,0.2417,0.2326,0.218,0.2109,0,0,0,0,0,0.1235,0.122,0.1246,0.1294,0.1379,0.144,0.1592,0.1676,0.1876,0.1905,0.2023,0.212,0.2197,0.2297,0.2237,0.2416,0.2466,0.2333,0.2362,0.2497,0.2516,0.2429,0,0,0,0,0,0,0.117,0.1175,0.1189,0.118,0.1199,0.1282,0.1382,0.1519,0.1548,0.1761,0.1818,0.1967,0.2074,0.22,0.2188,0.2211,0.218,0.2443,0.2437,0.2486,0.2503,0.2519,0.2436,0,0,0,0,0]},{"header":{"parameterUnit":"m.s-1","parameterCategory":2,"la1":30.2991,"la2":30.254,"lo1":-89.0895,"lo2":-89.0444,"dy":0.0017,"dx":0.0017,"nx":28,"ny":28,"refTime":"2025-06-23T03:00:00:Z","depth":"4","parameterNumber":3,"parameterNumberName":"V-component_of_CURRENTS"},"data":[0,0,0,0,0,0,0,0,0,0,0,0,0,0,0,0,0,0,0,0,0,0,0,0,0,0,0,0,0,0,0,0,0,0,0,0,0,0,0,0,0,0,0,0,0,0,0,0,0,0,0,0,0,0,0,0,0,0,0.0123,0.0123,0,0.0043,0.0042,0.0041,0.0007,0.0008,0.0008,0.0008,-0.0128,-0.0132,-0.0136,0,0,0,0,0,0,0,0,0,0,0,0,0,0.0135,0.0135,0.0124,0.0123,0.0122,0.0044,0.0042,0.0041,0.0007,0.0008,0.0008,0.0009,-0.0127,-0.0131,-0.0136,0,0,0,0,0,0,0,0,0,0,0,0,0,0.0099,0.0136,0.0124,0.0097,0.0094,0.0044,0.0042,0.0041,0.0007,0.0008,0.0008,0.0009,-0.0125,-0.0131,-0.0137,-0.0182,0,0,-0.0155,-0.0157,0,0,0,0,0,0,0,0,0.0101,0.0098,0.0102,0.0099,0.0095,0.0037,-0.0004,-0.0036,0.0007,0.0038,0.0008,0.0009,-0.0077,-0.0087,-0.0105,-0.0188,-0.0194,-0.0155,-0.0159,-0.0161,-0.0163,0,0,0,0,0,0,0,0.0104,0.0101,0.009,0.0101,0.0097,0.005,0.0047,-0.001,-0.0023,0.0036,0.0033,0.0027,-0.008,-0.0099,-0.0108,-0.0196,-0.0155,-0.016,-0.0164,-0.0166,-0.0299,-0.0299,0,0,0,0,0,0,0.0122,0.0104,0.0093,0.0088,0.0101,0.005,0.0046,0.0054,-0.0022,-0.0032,0.0027,0.0026,-0.0089,-0.0101,-0.0113,-0.0155,-0.0161,-0.0167,-0.017,-0.0299,-0.0299,-0.0299,0,0,0,0,0,0,0.0123,0.0123,0.0096,0.0094,0.0088,0.0051,0.0059,0.0052,0.0036,-0.0027,-0.0039,0.0018,-0.0089,-0.0105,-0.0161,-0.0161,-0.0169,-0.0175,-0.0299,-0.0299,-0.0299,-0.025,0,0,0,0,0,0,0.0124,0.0124,0.0131,0.0096,0.0089,0.0076,0.0059,0.005,0.0032,0.003,-0.0039,-0.0051,-0.009,-0.0152,-0.0167,-0.017,-0.0179,-0.0299,-0.0299,-0.0299,-0.0252,-0.0248,-0.0246,0,0,0,0,0,0.0125,0.0132,0.0132,0.013,0.0102,0.0077,0.0069,0.0041,0.0031,0.0027,-0.0022,-0.0049,-0.0162,-0.0157,-0.0175,-0.0179,-0.0299,-0.0299,-0.0299,-0.0253,-0.0249,-0.0246,0,0,0,0,0,0,0.0135,0.0129,0.0128,0.0133,0.0113,0.0072,0.0061,0.0043,0.0001,-0.0002,-0.0062,-0.0078,-0.0126,-0.016,-0.0153,-0.0215,-0.023,-0.0234,-0.0189,-0.0186,-0.0183,-0.0159,-0.0184,0,0,0,0,0,0.0144,0.0156,0.0134,0.014,0.0131,0.0097,0.0081,0.0068,0.0028,0.001,-0.0036,-0.0087,-0.0141,-0.0168,-0.0218,-0.026,-0.0292,-0.0269,-0.0266,-0.0263,-0.0254,-0.0305,-0.0306,-0.0299,-0.0299,-0.0299,0,0,0.0149,0.0148,0.0153,0.0143,0.0124,0.0118,0.0088,0.0073,0.0067,-0.0001,-0.003,-0.0085,-0.0151,-0.0194,-0.0217,-0.0221,-0.0283,-0.0263,-0.026,-0.0253,-0.0305,-0.0306,-0.0307,-0.0299,-0.0299,-0.0299,0,0,0.0167,0.0165,0.018,0.0169,0.0153,0.0132,0.0132,0.0097,0.008,0.0043,-0.0007,-0.0058,-0.0133,-0.0178,-0.0213,-0.0224,-0.0269,-0.0238,-0.0203,-0.0252,-0.0253,-0.0254,-0.0298,-0.0303,-0.0231,-0.0231,-0.0231,0,0.0173,0.0196,0.0176,0.0185,0.0183,0.0144,0.0156,0.0125,0.0079,0.0062,0.0046,-0.0068,-0.0123,-0.0184,-0.0185,-0.0218,-0.025,-0.0212,-0.0248,-0.025,-0.0252,-0.0296,-0.0303,-0.0229,-0.0229,-0.0229,-0.0229,0,0.0201,0.0218,0.0221,0.023,0.0221,0.0223,0.0191,0.0171,0.0145,0.0115,0.0055,-0.0024,-0.0085,-0.0115,-0.0157,-0.02,-0.0221,-0.0242,-0.0254,-0.0249,-0.0296,-0.0304,-0.0225,-0.0226,-0.0227,-0.0227,0,0,0.0218,0.0242,0.0242,0.0267,0.0251,0.0252,0.0234,0.0211,0.0203,0.0143,0.0122,0.0024,-0.0015,-0.0056,-0.0119,-0.0165,-0.0215,-0.0202,-0.0206,-0.0239,-0.0322,-0.0303,-0.0311,-0.0243,-0.0244,-0.0245,-0.0349,0,0.0248,0.0293,0.0289,0.0325,0.0345,0.0313,0.0306,0.0277,0.0238,0.0203,0.0113,0.0068,0.0006,-0.0021,-0.0081,-0.0184,-0.0232,-0.0184,-0.0326,-0.033,-0.031,-0.0318,-0.0248,-0.0355,-0.0357,-0.0358,-0.0359,0,0.0273,0.0308,0.0357,0.0396,0.04,0.0412,0.0404,0.0391,0.0322,0.0292,0.0223,0.0153,0.0063,0.0019,-0.0145,-0.0112,-0.0206,-0.0285,-0.0291,-0.0293,-0.0325,-0.0363,-0.0374,-0.0373,-0.0372,-0.0371,-0.037,0,0.0305,0.0352,0.0404,0.0414,0.0442,0.0457,0.0463,0.0419,0.0423,0.0349,0.0343,0.0215,0.0166,0.0025,-0.0138,-0.0143,-0.0315,-0.0342,-0.0418,-0.0418,-0.0425,-0.0423,-0.045,-0.045,-0.0449,-0.0449,-0.0449,0,0.0337,0.0378,0.043,0.0459,0.0521,0.0516,0.0557,0.0531,0.0509,0.052,0.0402,0.0376,0.0167,0.0041,-0.0117,-0.0286,-0.03,-0.041,-0.0442,-0.0402,-0.0396,-0.0431,-0.0427,-0.0453,-0.0452,-0.0451,-0.0451,0,0.0358,0.0389,0.0458,0.0516,0.054,0.0582,0.0642,0.0665,0.0635,0.0642,0.0629,0.0496,0.0331,0.0119,-0.0115,-0.0237,-0.0414,-0.0471,-0.0406,-0.0433,-0.0491,-0.0484,-0.0563,-0.0564,-0.0564,-0.0564,-0.0564,0,0.0377,0.0414,0.0507,0.0558,0.0592,0.0661,0.0709,0.0721,0.0751,0.0717,0.0724,0.058,0.0466,0.0158,-0.0077,-0.0377,-0.0419,-0.0509,-0.0509,-0.0479,-0.0503,-0.0495,-0.0488,-0.0564,-0.0564,-0.0564,-0.0564,0,0.0413,0.0443,0.0502,0.061,0.0685,0.0771,0.0842,0.088,0.0887,0.0869,0.0812,0.0641,0.0454,0.0184,-0.0048,-0.0266,-0.0452,-0.0511,-0.0513,-0.0514,-0.0481,-0.0503,-0.0496,-0.0565,-0.0565,-0.0565,-0.0565,0,0.0439,0.0484,0.0564,0.0658,0.0757,0.0851,0.0888,0.0933,0.0962,0.0926,0.0905,0.0691,0.0558,0.0242,0.0025,-0.0186,-0.0244,-0.031,-0.0323,-0.0325,-0.023,-0.0151,-0.0158,0,0,0,0,0,0.0465,0.052,0.0609,0.0717,0.0815,0.0872,0.0964,0.099,0.1007,0.0986,0.0951,0.0776,0.0457,0.0309,0.0104,0.0004,-0.0293,-0.0245,-0.0378,-0.0568,-0.0567,-0.0495,0,0,0,0,0,0,0.0482,0.0563,0.061,0.0748,0.0823,0.0936,0.0996,0.101,0.0998,0.0978,0.0813,0.0726,0.0411,0.0573,0.0098,0.0032,-0.0079,-0.04,-0.0404,-0.0568,-0.0568,-0.0567,-0.0493,0,0,0,0,0]}]]